Year,Month,Day,Hour,Minute,Value (Times are PST for temperature in C)
2017,09,05,00,00,15.30
2017,09,05,00,01,15.30
2017,09,05,00,02,15.30
2017,09,05,00,03,15.30
2017,09,05,00,04,15.30
2017,09,05,00,05,15.30
2017,09,05,00,06,15.30
2017,09,05,00,07,15.30
2017,09,05,00,08,15.30
2017,09,05,00,09,15.30
2017,09,05,00,10,15.30
2017,09,05,00,11,15.20
2017,09,05,00,12,15.20
2017,09,05,00,13,15.20
2017,09,05,00,14,15.10
2017,09,05,00,15,15.10
2017,09,05,00,16,15.10
2017,09,05,00,17,15.00
2017,09,05,00,18,15.00
2017,09,05,00,19,15.00
2017,09,05,00,20,14.90
2017,09,05,00,21,14.90
2017,09,05,00,22,14.90
2017,09,05,00,23,14.90
2017,09,05,00,24,14.90
2017,09,05,00,25,15.00
2017,09,05,00,26,15.00
2017,09,05,00,27,15.00
2017,09,05,00,28,15.10
2017,09,05,00,29,15.10
2017,09,05,00,30,15.10
2017,09,05,00,31,15.20
2017,09,05,00,32,15.20
2017,09,05,00,33,15.20
2017,09,05,00,34,15.10
2017,09,05,00,35,15.10
2017,09,05,00,36,15.10
2017,09,05,00,37,15.10
2017,09,05,00,38,15.10
2017,09,05,00,39,15.00
2017,09,05,00,40,15.00
2017,09,05,00,41,15.00
2017,09,05,00,42,14.90
2017,09,05,00,43,14.90
2017,09,05,00,44,14.90
2017,09,05,00,45,14.90
2017,09,05,00,46,14.80
2017,09,05,00,47,14.80
2017,09,05,00,48,14.80
2017,09,05,00,49,14.80
2017,09,05,00,50,14.80
2017,09,05,00,51,14.70
2017,09,05,00,52,14.70
2017,09,05,00,53,14.70
2017,09,05,00,54,14.70
2017,09,05,00,55,14.70
2017,09,05,00,56,14.70
2017,09,05,00,57,14.70
2017,09,05,00,58,14.70
2017,09,05,00,59,14.70
2017,09,05,01,00,14.70
2017,09,05,01,01,14.70
2017,09,05,01,02,14.70
2017,09,05,01,03,14.80
2017,09,05,01,04,14.80
2017,09,05,01,05,14.80
2017,09,05,01,06,14.80
2017,09,05,01,07,14.80
2017,09,05,01,08,14.80
2017,09,05,01,09,14.80
2017,09,05,01,10,14.80
2017,09,05,01,11,14.80
2017,09,05,01,12,14.80
2017,09,05,01,13,14.80
2017,09,05,01,14,14.80
2017,09,05,01,15,14.80
2017,09,05,01,16,14.80
2017,09,05,01,17,14.80
2017,09,05,01,18,14.70
2017,09,05,01,19,14.70
2017,09,05,01,20,14.70
2017,09,05,01,21,14.70
2017,09,05,01,22,14.70
2017,09,05,01,23,14.70
2017,09,05,01,24,14.70
2017,09,05,01,25,14.70
2017,09,05,01,26,14.70
2017,09,05,01,27,14.70
2017,09,05,01,28,14.70
2017,09,05,01,29,14.70
2017,09,05,01,30,14.70
2017,09,05,01,31,14.70
2017,09,05,01,32,14.70
2017,09,05,01,33,14.70
2017,09,05,01,34,14.70
2017,09,05,01,35,14.70
2017,09,05,01,36,14.70
2017,09,05,01,37,14.70
2017,09,05,01,38,14.70
2017,09,05,01,39,14.70
2017,09,05,01,40,14.70
2017,09,05,01,41,14.70
2017,09,05,01,42,14.70
2017,09,05,01,43,14.70
2017,09,05,01,44,14.70
2017,09,05,01,45,14.70
2017,09,05,01,46,14.70
2017,09,05,01,47,14.70
2017,09,05,01,48,14.70
2017,09,05,01,49,14.70
2017,09,05,01,50,14.70
2017,09,05,01,51,14.60
2017,09,05,01,52,14.60
2017,09,05,01,53,14.60
2017,09,05,01,54,14.60
2017,09,05,01,55,14.60
2017,09,05,01,56,14.60
2017,09,05,01,57,14.60
2017,09,05,01,58,14.60
2017,09,05,01,59,14.60
2017,09,05,02,00,14.60
2017,09,05,02,01,14.70
2017,09,05,02,02,14.70
2017,09,05,02,03,14.70
2017,09,05,02,04,14.70
2017,09,05,02,05,14.70
2017,09,05,02,06,14.70
2017,09,05,02,07,14.70
2017,09,05,02,08,14.70
2017,09,05,02,09,14.70
2017,09,05,02,10,14.70
2017,09,05,02,11,14.70
2017,09,05,02,12,14.70
2017,09,05,02,13,14.70
2017,09,05,02,14,14.70
2017,09,05,02,15,14.70
2017,09,05,02,16,14.70
2017,09,05,02,17,14.70
2017,09,05,02,18,14.70
2017,09,05,02,19,14.70
2017,09,05,02,20,14.70
2017,09,05,02,21,14.70
2017,09,05,02,22,14.70
2017,09,05,02,23,14.70
2017,09,05,02,24,14.70
2017,09,05,02,25,14.70
2017,09,05,02,26,14.70
2017,09,05,02,27,14.70
2017,09,05,02,28,14.70
2017,09,05,02,29,14.70
2017,09,05,02,30,14.70
2017,09,05,02,31,14.70
2017,09,05,02,32,14.70
2017,09,05,02,33,14.70
2017,09,05,02,34,14.80
2017,09,05,02,35,14.80
2017,09,05,02,36,14.80
2017,09,05,02,37,14.80
2017,09,05,02,38,14.80
2017,09,05,02,39,14.80
2017,09,05,02,40,14.80
2017,09,05,02,41,14.80
2017,09,05,02,42,14.90
2017,09,05,02,43,14.90
2017,09,05,02,44,15.00
2017,09,05,02,45,15.00
2017,09,05,02,46,15.00
2017,09,05,02,47,15.00
2017,09,05,02,48,15.00
2017,09,05,02,49,14.90
2017,09,05,02,50,14.90
2017,09,05,02,51,14.90
2017,09,05,02,52,14.90
2017,09,05,02,53,14.80
2017,09,05,02,54,14.80
2017,09,05,02,55,14.80
2017,09,05,02,56,14.80
2017,09,05,02,57,14.80
2017,09,05,02,58,14.80
2017,09,05,02,59,14.80
2017,09,05,03,00,14.80
2017,09,05,03,01,14.80
2017,09,05,03,02,14.80
2017,09,05,03,03,14.80
2017,09,05,03,04,14.80
2017,09,05,03,05,14.80
2017,09,05,03,06,14.80
2017,09,05,03,07,14.80
2017,09,05,03,08,14.80
2017,09,05,03,09,14.80
2017,09,05,03,10,14.80
2017,09,05,03,11,14.80
2017,09,05,03,12,14.80
2017,09,05,03,13,14.70
2017,09,05,03,14,14.70
2017,09,05,03,15,14.70
2017,09,05,03,16,14.70
2017,09,05,03,17,14.70
2017,09,05,03,18,14.70
2017,09,05,03,19,14.70
2017,09,05,03,20,14.70
2017,09,05,03,21,14.60
2017,09,05,03,22,14.60
2017,09,05,03,23,14.70
2017,09,05,03,24,14.70
2017,09,05,03,25,14.70
2017,09,05,03,26,14.70
2017,09,05,03,27,14.70
2017,09,05,03,28,14.70
2017,09,05,03,29,14.80
2017,09,05,03,30,14.80
2017,09,05,03,31,14.90
2017,09,05,03,32,14.90
2017,09,05,03,33,14.90
2017,09,05,03,34,15.00
2017,09,05,03,35,15.00
2017,09,05,03,36,15.10
2017,09,05,03,37,15.10
2017,09,05,03,38,15.10
2017,09,05,03,39,15.10
2017,09,05,03,40,15.10
2017,09,05,03,41,15.20
2017,09,05,03,42,15.20
2017,09,05,03,43,15.30
2017,09,05,03,44,15.30
2017,09,05,03,45,15.30
2017,09,05,03,46,15.30
2017,09,05,03,47,15.40
2017,09,05,03,48,15.40
2017,09,05,03,49,15.40
2017,09,05,03,50,15.40
2017,09,05,03,51,15.40
2017,09,05,03,52,15.40
2017,09,05,03,53,15.40
2017,09,05,03,54,15.30
2017,09,05,03,55,15.30
2017,09,05,03,56,15.30
2017,09,05,03,57,15.30
2017,09,05,03,58,15.20
2017,09,05,03,59,15.20
2017,09,05,04,00,15.20
2017,09,05,04,01,15.30
2017,09,05,04,02,15.30
2017,09,05,04,03,15.30
2017,09,05,04,04,15.30
2017,09,05,04,05,15.30
2017,09,05,04,06,15.30
2017,09,05,04,07,15.30
2017,09,05,04,08,15.20
2017,09,05,04,09,15.20
2017,09,05,04,10,15.20
2017,09,05,04,11,15.20
2017,09,05,04,12,15.20
2017,09,05,04,13,15.20
2017,09,05,04,14,15.20
2017,09,05,04,15,15.20
2017,09,05,04,16,15.20
2017,09,05,04,17,15.20
2017,09,05,04,18,15.20
2017,09,05,04,19,15.20
2017,09,05,04,20,15.20
2017,09,05,04,21,15.20
2017,09,05,04,22,15.20
2017,09,05,04,23,15.20
2017,09,05,04,24,15.20
2017,09,05,04,25,15.20
2017,09,05,04,26,15.20
2017,09,05,04,27,15.20
2017,09,05,04,28,15.20
2017,09,05,04,29,15.20
2017,09,05,04,30,15.20
2017,09,05,04,31,15.20
2017,09,05,04,32,15.20
2017,09,05,04,33,15.10
2017,09,05,04,34,15.10
2017,09,05,04,35,15.10
2017,09,05,04,36,15.10
2017,09,05,04,37,15.10
2017,09,05,04,38,15.10
2017,09,05,04,39,15.10
2017,09,05,04,40,15.10
2017,09,05,04,41,15.10
2017,09,05,04,42,15.20
2017,09,05,04,43,15.20
2017,09,05,04,44,15.20
2017,09,05,04,45,15.20
2017,09,05,04,46,15.20
2017,09,05,04,47,15.20
2017,09,05,04,48,15.20
2017,09,05,04,49,15.20
2017,09,05,04,50,15.20
2017,09,05,04,51,15.20
2017,09,05,04,52,15.20
2017,09,05,04,53,15.20
2017,09,05,04,54,15.20
2017,09,05,04,55,15.20
2017,09,05,04,56,15.20
2017,09,05,04,57,15.20
2017,09,05,04,58,15.20
2017,09,05,04,59,15.20
2017,09,05,05,00,15.20
2017,09,05,05,01,15.20
2017,09,05,05,02,15.20
2017,09,05,05,03,15.20
2017,09,05,05,04,15.20
2017,09,05,05,05,15.20
2017,09,05,05,06,15.20
2017,09,05,05,07,15.20
2017,09,05,05,08,15.20
2017,09,05,05,09,15.20
2017,09,05,05,10,15.20
2017,09,05,05,11,15.20
2017,09,05,05,12,15.10
2017,09,05,05,13,15.10
2017,09,05,05,14,15.10
2017,09,05,05,15,15.10
2017,09,05,05,16,15.10
2017,09,05,05,17,15.10
2017,09,05,05,18,15.10
2017,09,05,05,19,15.00
2017,09,05,05,20,15.00
2017,09,05,05,21,15.00
2017,09,05,05,22,15.00
2017,09,05,05,23,15.00
2017,09,05,05,24,15.00
2017,09,05,05,25,15.00
2017,09,05,05,26,15.00
2017,09,05,05,27,15.00
2017,09,05,05,28,15.10
2017,09,05,05,29,15.10
2017,09,05,05,30,15.10
2017,09,05,05,31,15.10
2017,09,05,05,32,15.00
2017,09,05,05,33,15.00
2017,09,05,05,34,15.00
2017,09,05,05,35,15.00
2017,09,05,05,36,15.00
2017,09,05,05,37,15.10
2017,09,05,05,38,15.10
2017,09,05,05,39,15.10
2017,09,05,05,40,15.10
2017,09,05,05,41,15.10
2017,09,05,05,42,15.10
2017,09,05,05,43,15.10
2017,09,05,05,44,15.10
2017,09,05,05,45,15.10
2017,09,05,05,46,15.10
2017,09,05,05,47,15.10
2017,09,05,05,48,15.00
2017,09,05,05,49,15.00
2017,09,05,05,50,15.00
2017,09,05,05,51,15.00
2017,09,05,05,52,15.00
2017,09,05,05,53,15.00
2017,09,05,05,54,15.10
2017,09,05,05,55,15.10
2017,09,05,05,56,15.10
2017,09,05,05,57,15.10
2017,09,05,05,58,15.10
2017,09,05,05,59,15.10
2017,09,05,06,00,15.10
2017,09,05,06,01,15.10
2017,09,05,06,02,15.10
2017,09,05,06,03,15.10
2017,09,05,06,04,15.10
2017,09,05,06,05,15.10
2017,09,05,06,06,15.10
2017,09,05,06,07,15.10
2017,09,05,06,08,15.20
2017,09,05,06,09,15.20
2017,09,05,06,10,15.20
2017,09,05,06,11,15.30
2017,09,05,06,12,15.30
2017,09,05,06,13,15.30
2017,09,05,06,14,15.40
2017,09,05,06,15,15.40
2017,09,05,06,16,15.40
2017,09,05,06,17,15.40
2017,09,05,06,18,15.40
2017,09,05,06,19,15.40
2017,09,05,06,20,15.40
2017,09,05,06,21,15.40
2017,09,05,06,22,15.40
2017,09,05,06,23,15.40
2017,09,05,06,24,15.30
2017,09,05,06,25,15.30
2017,09,05,06,26,15.30
2017,09,05,06,27,15.30
2017,09,05,06,28,15.30
2017,09,05,06,29,15.30
2017,09,05,06,30,15.30
2017,09,05,06,31,15.30
2017,09,05,06,32,15.30
2017,09,05,06,33,15.20
2017,09,05,06,34,15.20
2017,09,05,06,35,15.20
2017,09,05,06,36,15.20
2017,09,05,06,37,15.20
2017,09,05,06,38,15.20
2017,09,05,06,39,15.20
2017,09,05,06,40,15.20
2017,09,05,06,41,15.20
2017,09,05,06,42,15.20
2017,09,05,06,43,15.20
2017,09,05,06,44,15.20
2017,09,05,06,45,15.20
2017,09,05,06,46,15.20
2017,09,05,06,47,15.20
2017,09,05,06,48,15.20
2017,09,05,06,49,15.20
2017,09,05,06,50,15.20
2017,09,05,06,51,15.20
2017,09,05,06,52,15.20
2017,09,05,06,53,15.20
2017,09,05,06,54,15.20
2017,09,05,06,55,15.20
2017,09,05,06,56,15.20
2017,09,05,06,57,15.20
2017,09,05,06,58,15.20
2017,09,05,06,59,15.20
2017,09,05,07,00,15.20
2017,09,05,07,01,15.20
2017,09,05,07,02,15.20
2017,09,05,07,03,15.20
2017,09,05,07,04,15.20
2017,09,05,07,05,15.20
2017,09,05,07,06,15.20
2017,09,05,07,07,15.20
2017,09,05,07,08,15.20
2017,09,05,07,09,15.20
2017,09,05,07,10,15.20
2017,09,05,07,11,15.20
2017,09,05,07,12,15.20
2017,09,05,07,13,15.20
2017,09,05,07,14,15.20
2017,09,05,07,15,15.20
2017,09,05,07,16,15.20
2017,09,05,07,17,15.20
2017,09,05,07,18,15.20
2017,09,05,07,19,15.30
2017,09,05,07,20,15.30
2017,09,05,07,21,15.30
2017,09,05,07,22,15.30
2017,09,05,07,23,15.30
2017,09,05,07,24,15.30
2017,09,05,07,25,15.30
2017,09,05,07,26,15.30
2017,09,05,07,27,15.30
2017,09,05,07,28,15.30
2017,09,05,07,29,15.30
2017,09,05,07,30,15.30
2017,09,05,07,31,15.30
2017,09,05,07,32,15.30
2017,09,05,07,33,15.30
2017,09,05,07,34,15.30
2017,09,05,07,35,15.30
2017,09,05,07,36,15.30
2017,09,05,07,37,15.30
2017,09,05,07,38,15.30
2017,09,05,07,39,15.30
2017,09,05,07,40,15.30
2017,09,05,07,41,15.40
2017,09,05,07,42,15.40
2017,09,05,07,43,15.40
2017,09,05,07,44,15.40
2017,09,05,07,45,15.40
2017,09,05,07,46,15.40
2017,09,05,07,47,15.40
2017,09,05,07,48,15.40
2017,09,05,07,49,15.50
2017,09,05,07,50,15.50
2017,09,05,07,51,15.50
2017,09,05,07,52,15.60
2017,09,05,07,53,15.60
2017,09,05,07,54,15.60
2017,09,05,07,55,15.70
2017,09,05,07,56,15.70
2017,09,05,07,57,15.80
2017,09,05,07,58,15.80
2017,09,05,07,59,15.80
2017,09,05,08,00,15.90
2017,09,05,08,01,15.90
2017,09,05,08,02,15.90
2017,09,05,08,03,16.00
2017,09,05,08,04,16.00
2017,09,05,08,05,16.00
2017,09,05,08,06,16.10
2017,09,05,08,07,16.10
2017,09,05,08,08,16.10
2017,09,05,08,09,16.20
2017,09,05,08,10,16.20
2017,09,05,08,11,16.20
2017,09,05,08,12,16.20
2017,09,05,08,13,16.20
2017,09,05,08,14,16.30
2017,09,05,08,15,16.30
2017,09,05,08,16,16.30
2017,09,05,08,17,16.30
2017,09,05,08,18,16.30
2017,09,05,08,19,16.30
2017,09,05,08,20,16.30
2017,09,05,08,21,16.30
2017,09,05,08,22,16.30
2017,09,05,08,23,16.40
2017,09,05,08,24,16.40
2017,09,05,08,25,16.40
2017,09,05,08,26,16.40
2017,09,05,08,27,16.40
2017,09,05,08,28,16.50
2017,09,05,08,29,16.50
2017,09,05,08,30,16.60
2017,09,05,08,31,16.60
2017,09,05,08,32,16.70
2017,09,05,08,33,16.70
2017,09,05,08,34,16.70
2017,09,05,08,35,16.80
2017,09,05,08,36,16.80
2017,09,05,08,37,16.80
2017,09,05,08,38,16.90
2017,09,05,08,39,16.90
2017,09,05,08,40,16.90
2017,09,05,08,41,17.00
2017,09,05,08,42,17.00
2017,09,05,08,43,17.00
2017,09,05,08,44,17.10
2017,09,05,08,45,17.10
2017,09,05,08,46,17.20
2017,09,05,08,47,17.20
2017,09,05,08,48,17.30
2017,09,05,08,49,17.30
2017,09,05,08,50,17.40
2017,09,05,08,51,17.40
2017,09,05,08,52,17.50
2017,09,05,08,53,17.50
2017,09,05,08,54,17.60
2017,09,05,08,55,17.60
2017,09,05,08,56,17.70
2017,09,05,08,57,17.70
2017,09,05,08,58,17.80
2017,09,05,08,59,17.90
2017,09,05,09,00,17.90
2017,09,05,09,01,18.00
2017,09,05,09,02,18.00
2017,09,05,09,03,18.10
2017,09,05,09,04,18.10
2017,09,05,09,05,18.20
2017,09,05,09,06,18.20
2017,09,05,09,07,18.30
2017,09,05,09,08,18.30
2017,09,05,09,09,18.40
2017,09,05,09,10,18.50
2017,09,05,09,11,18.50
2017,09,05,09,12,18.60
2017,09,05,09,13,18.60
2017,09,05,09,14,18.70
2017,09,05,09,15,18.80
2017,09,05,09,16,18.80
2017,09,05,09,17,18.80
2017,09,05,09,18,18.90
2017,09,05,09,19,19.00
2017,09,05,09,20,19.00
2017,09,05,09,21,19.10
2017,09,05,09,22,19.20
2017,09,05,09,23,19.30
2017,09,05,09,24,19.30
2017,09,05,09,25,19.30
2017,09,05,09,26,19.40
2017,09,05,09,27,19.50
2017,09,05,09,28,19.50
2017,09,05,09,29,19.60
2017,09,05,09,30,19.60
2017,09,05,09,31,19.70
2017,09,05,09,32,19.70
2017,09,05,09,33,19.70
2017,09,05,09,34,19.80
2017,09,05,09,35,19.80
2017,09,05,09,36,19.90
2017,09,05,09,37,20.00
2017,09,05,09,38,20.00
2017,09,05,09,39,20.10
2017,09,05,09,40,20.20
2017,09,05,09,41,20.30
2017,09,05,09,42,20.30
2017,09,05,09,43,20.40
2017,09,05,09,44,20.50
2017,09,05,09,45,20.50
2017,09,05,09,46,20.60
2017,09,05,09,47,20.60
2017,09,05,09,48,20.70
2017,09,05,09,49,20.70
2017,09,05,09,50,20.70
2017,09,05,09,51,20.70
2017,09,05,09,52,20.80
2017,09,05,09,53,20.80
2017,09,05,09,54,20.80
2017,09,05,09,55,20.90
2017,09,05,09,56,21.00
2017,09,05,09,57,21.00
2017,09,05,09,58,21.10
2017,09,05,09,59,21.20
2017,09,05,10,00,21.20
2017,09,05,10,01,21.20
2017,09,05,10,02,21.30
2017,09,05,10,03,21.30
2017,09,05,10,04,21.40
2017,09,05,10,05,21.50
2017,09,05,10,06,21.60
2017,09,05,10,07,21.60
2017,09,05,10,08,21.70
2017,09,05,10,09,21.70
2017,09,05,10,10,21.80
2017,09,05,10,11,21.80
2017,09,05,10,12,21.80
2017,09,05,10,13,21.80
2017,09,05,10,14,21.80
2017,09,05,10,15,21.90
2017,09,05,10,16,21.90
2017,09,05,10,17,21.90
2017,09,05,10,18,22.00
2017,09,05,10,19,22.10
2017,09,05,10,20,22.10
2017,09,05,10,21,22.10
2017,09,05,10,22,22.20
2017,09,05,10,23,22.20
2017,09,05,10,24,22.30
2017,09,05,10,25,22.30
2017,09,05,10,26,22.40
2017,09,05,10,27,22.40
2017,09,05,10,28,22.50
2017,09,05,10,29,22.50
2017,09,05,10,30,22.60
2017,09,05,10,31,22.60
2017,09,05,10,32,22.70
2017,09,05,10,33,22.70
2017,09,05,10,34,22.80
2017,09,05,10,35,22.80
2017,09,05,10,36,22.90
2017,09,05,10,37,23.00
2017,09,05,10,38,23.10
2017,09,05,10,39,23.20
2017,09,05,10,40,23.30
2017,09,05,10,41,23.30
2017,09,05,10,42,23.40
2017,09,05,10,43,23.50
2017,09,05,10,44,23.60
2017,09,05,10,45,23.70
2017,09,05,10,46,23.70
2017,09,05,10,47,23.80
2017,09,05,10,48,23.90
2017,09,05,10,49,23.90
2017,09,05,10,50,23.90
2017,09,05,10,51,24.00
2017,09,05,10,52,24.00
2017,09,05,10,53,24.10
2017,09,05,10,54,24.10
2017,09,05,10,55,24.10
2017,09,05,10,56,24.20
2017,09,05,10,57,24.20
2017,09,05,10,58,24.20
2017,09,05,10,59,24.20
2017,09,05,11,00,24.20
2017,09,05,11,01,24.30
2017,09,05,11,02,24.30
2017,09,05,11,03,24.30
2017,09,05,11,04,24.40
2017,09,05,11,05,24.40
2017,09,05,11,06,24.50
2017,09,05,11,07,24.60
2017,09,05,11,08,24.70
2017,09,05,11,09,24.70
2017,09,05,11,10,24.80
2017,09,05,11,11,24.90
2017,09,05,11,12,24.90
2017,09,05,11,13,25.00
2017,09,05,11,14,25.10
2017,09,05,11,15,25.20
2017,09,05,11,16,25.30
2017,09,05,11,17,25.40
2017,09,05,11,18,25.40
2017,09,05,11,19,25.50
2017,09,05,11,20,25.60
2017,09,05,11,21,25.60
2017,09,05,11,22,25.60
2017,09,05,11,23,25.70
2017,09,05,11,24,25.70
2017,09,05,11,25,25.70
2017,09,05,11,26,25.70
2017,09,05,11,27,25.80
2017,09,05,11,28,25.80
2017,09,05,11,29,25.80
2017,09,05,11,30,25.80
2017,09,05,11,31,25.80
2017,09,05,11,32,25.80
2017,09,05,11,33,25.80
2017,09,05,11,34,25.80
2017,09,05,11,35,25.80
2017,09,05,11,36,25.70
2017,09,05,11,37,25.70
2017,09,05,11,38,25.70
2017,09,05,11,39,25.70
2017,09,05,11,40,25.60
2017,09,05,11,41,25.60
2017,09,05,11,42,25.60
2017,09,05,11,43,25.50
2017,09,05,11,44,25.40
2017,09,05,11,45,25.30
2017,09,05,11,46,25.20
2017,09,05,11,47,25.20
2017,09,05,11,48,25.10
2017,09,05,11,49,25.10
2017,09,05,11,50,25.10
2017,09,05,11,51,25.10
2017,09,05,11,52,25.10
2017,09,05,11,53,25.10
2017,09,05,11,54,25.10
2017,09,05,11,55,25.10
2017,09,05,11,56,25.10
2017,09,05,11,57,25.10
2017,09,05,11,58,25.00
2017,09,05,11,59,25.00
2017,09,05,12,00,25.00
2017,09,05,12,01,25.00
2017,09,05,12,02,25.00
2017,09,05,12,03,25.10
2017,09,05,12,04,25.10
2017,09,05,12,05,25.10
2017,09,05,12,06,25.10
2017,09,05,12,07,25.10
2017,09,05,12,08,25.10
2017,09,05,12,09,25.10
2017,09,05,12,10,25.10
2017,09,05,12,11,25.10
2017,09,05,12,12,25.10
2017,09,05,12,13,25.10
2017,09,05,12,14,25.00
2017,09,05,12,15,25.00
2017,09,05,12,16,25.00
2017,09,05,12,17,25.00
2017,09,05,12,18,25.00
2017,09,05,12,19,25.10
2017,09,05,12,20,25.10
2017,09,05,12,21,25.10
2017,09,05,12,22,25.20
2017,09,05,12,23,25.20
2017,09,05,12,24,25.20
2017,09,05,12,25,25.20
2017,09,05,12,26,25.20
2017,09,05,12,27,25.20
2017,09,05,12,28,25.10
2017,09,05,12,29,25.00
2017,09,05,12,30,24.90
2017,09,05,12,31,24.80
2017,09,05,12,32,24.70
2017,09,05,12,33,24.60
2017,09,05,12,34,24.60
2017,09,05,12,35,24.60
2017,09,05,12,36,24.50
2017,09,05,12,37,24.50
2017,09,05,12,38,24.50
2017,09,05,12,39,24.50
2017,09,05,12,40,24.50
2017,09,05,12,41,24.60
2017,09,05,12,42,24.60
2017,09,05,12,43,24.60
2017,09,05,12,44,24.60
2017,09,05,12,45,24.60
2017,09,05,12,46,24.70
2017,09,05,12,47,24.70
2017,09,05,12,48,24.70
2017,09,05,12,49,24.80
2017,09,05,12,50,24.80
2017,09,05,12,51,24.90
2017,09,05,12,52,25.00
2017,09,05,12,53,25.00
2017,09,05,12,54,25.10
2017,09,05,12,55,25.20
2017,09,05,12,56,25.30
2017,09,05,12,57,25.50
2017,09,05,12,58,25.60
2017,09,05,12,59,25.60
2017,09,05,13,00,25.70
2017,09,05,13,01,25.80
2017,09,05,13,02,25.80
2017,09,05,13,03,25.90
2017,09,05,13,04,26.00
2017,09,05,13,05,26.00
2017,09,05,13,06,26.10
2017,09,05,13,07,26.10
2017,09,05,13,08,26.20
2017,09,05,13,09,26.20
2017,09,05,13,10,26.30
2017,09,05,13,11,26.30
2017,09,05,13,12,26.40
2017,09,05,13,13,26.40
2017,09,05,13,14,26.40
2017,09,05,13,15,26.40
2017,09,05,13,16,26.50
2017,09,05,13,17,26.50
2017,09,05,13,18,26.50
2017,09,05,13,19,26.50
2017,09,05,13,20,26.50
2017,09,05,13,21,26.50
2017,09,05,13,22,26.40
2017,09,05,13,23,26.40
2017,09,05,13,24,26.40
2017,09,05,13,25,26.30
2017,09,05,13,26,26.30
2017,09,05,13,27,26.20
2017,09,05,13,28,26.20
2017,09,05,13,29,26.20
2017,09,05,13,30,26.20
2017,09,05,13,31,26.20
2017,09,05,13,32,26.20
2017,09,05,13,33,26.20
2017,09,05,13,34,26.20
2017,09,05,13,35,26.20
2017,09,05,13,36,26.30
2017,09,05,13,37,26.30
2017,09,05,13,38,26.30
2017,09,05,13,39,26.40
2017,09,05,13,40,26.40
2017,09,05,13,41,26.40
2017,09,05,13,42,26.40
2017,09,05,13,43,26.40
2017,09,05,13,44,26.40
2017,09,05,13,45,26.40
2017,09,05,13,46,26.40
2017,09,05,13,47,26.50
2017,09,05,13,48,26.60
2017,09,05,13,49,26.60
2017,09,05,13,50,26.70
2017,09,05,13,51,26.70
2017,09,05,13,52,26.70
2017,09,05,13,53,26.70
2017,09,05,13,54,26.70
2017,09,05,13,55,26.80
2017,09,05,13,56,26.80
2017,09,05,13,57,26.80
2017,09,05,13,58,26.90
2017,09,05,13,59,26.90
2017,09,05,14,00,26.90
2017,09,05,14,01,26.90
2017,09,05,14,02,26.90
2017,09,05,14,03,26.90
2017,09,05,14,04,26.90
2017,09,05,14,05,26.80
2017,09,05,14,06,26.80
2017,09,05,14,07,26.80
2017,09,05,14,08,26.90
2017,09,05,14,09,26.90
2017,09,05,14,10,27.00
2017,09,05,14,11,27.10
2017,09,05,14,12,27.20
2017,09,05,14,13,27.20
2017,09,05,14,14,27.30
2017,09,05,14,15,27.40
2017,09,05,14,16,27.50
2017,09,05,14,17,27.50
2017,09,05,14,18,27.60
2017,09,05,14,19,27.60
2017,09,05,14,20,27.70
2017,09,05,14,21,27.70
2017,09,05,14,22,27.70
2017,09,05,14,23,27.80
2017,09,05,14,24,27.80
2017,09,05,14,25,27.90
2017,09,05,14,26,28.00
2017,09,05,14,27,28.00
2017,09,05,14,28,28.10
2017,09,05,14,29,28.20
2017,09,05,14,30,28.20
2017,09,05,14,31,28.30
2017,09,05,14,32,28.40
2017,09,05,14,33,28.40
2017,09,05,14,34,28.50
2017,09,05,14,35,28.60
2017,09,05,14,36,28.60
2017,09,05,14,37,28.60
2017,09,05,14,38,28.70
2017,09,05,14,39,28.80
2017,09,05,14,40,28.80
2017,09,05,14,41,28.90
2017,09,05,14,42,29.10
2017,09,05,14,43,29.20
2017,09,05,14,44,29.30
2017,09,05,14,45,29.40
2017,09,05,14,46,29.50
2017,09,05,14,47,29.50
2017,09,05,14,48,29.60
2017,09,05,14,49,29.60
2017,09,05,14,50,29.70
2017,09,05,14,51,29.70
2017,09,05,14,52,29.70
2017,09,05,14,53,29.80
2017,09,05,14,54,29.80
2017,09,05,14,55,29.80
2017,09,05,14,56,29.80
2017,09,05,14,57,29.90
2017,09,05,14,58,29.90
2017,09,05,14,59,30.00
2017,09,05,15,00,30.00
2017,09,05,15,01,30.10
2017,09,05,15,02,30.10
2017,09,05,15,03,30.10
2017,09,05,15,04,30.20
2017,09,05,15,05,30.20
2017,09,05,15,06,30.20
2017,09,05,15,07,30.20
2017,09,05,15,08,30.20
2017,09,05,15,09,30.00
2017,09,05,15,10,29.90
2017,09,05,15,11,29.70
2017,09,05,15,12,29.60
2017,09,05,15,13,29.40
2017,09,05,15,14,29.30
2017,09,05,15,15,29.20
2017,09,05,15,16,29.20
2017,09,05,15,17,29.20
2017,09,05,15,18,29.20
2017,09,05,15,19,29.20
2017,09,05,15,20,29.20
2017,09,05,15,21,29.30
2017,09,05,15,22,29.30
2017,09,05,15,23,29.40
2017,09,05,15,24,29.50
2017,09,05,15,25,29.50
2017,09,05,15,26,29.60
2017,09,05,15,27,29.60
2017,09,05,15,28,29.70
2017,09,05,15,29,29.80
2017,09,05,15,30,29.90
2017,09,05,15,31,29.90
2017,09,05,15,32,30.00
2017,09,05,15,33,30.00
2017,09,05,15,34,30.10
2017,09,05,15,35,30.10
2017,09,05,15,36,30.20
2017,09,05,15,37,30.30
2017,09,05,15,38,30.40
2017,09,05,15,39,30.40
2017,09,05,15,40,30.50
2017,09,05,15,41,30.50
2017,09,05,15,42,30.60
2017,09,05,15,43,30.60
2017,09,05,15,44,30.60
2017,09,05,15,45,30.60
2017,09,05,15,46,30.60
2017,09,05,15,47,30.60
2017,09,05,15,48,30.60
2017,09,05,15,49,30.60
2017,09,05,15,50,30.60
2017,09,05,15,51,30.60
2017,09,05,15,52,30.60
2017,09,05,15,53,30.60
2017,09,05,15,54,30.60
2017,09,05,15,55,30.70
2017,09,05,15,56,30.70
2017,09,05,15,57,30.70
2017,09,05,15,58,30.80
2017,09,05,15,59,30.80
2017,09,05,16,00,30.80
2017,09,05,16,01,30.80
2017,09,05,16,02,30.70
2017,09,05,16,03,30.70
2017,09,05,16,04,30.60
2017,09,05,16,05,30.60
2017,09,05,16,06,30.50
2017,09,05,16,07,30.40
2017,09,05,16,08,30.30
2017,09,05,16,09,30.30
2017,09,05,16,10,30.20
2017,09,05,16,11,30.10
2017,09,05,16,12,30.00
2017,09,05,16,13,29.90
2017,09,05,16,14,29.90
2017,09,05,16,15,29.80
2017,09,05,16,16,29.80
2017,09,05,16,17,29.80
2017,09,05,16,18,29.70
2017,09,05,16,19,29.70
2017,09,05,16,20,29.60
2017,09,05,16,21,29.50
2017,09,05,16,22,29.40
2017,09,05,16,23,29.30
2017,09,05,16,24,29.30
2017,09,05,16,25,29.20
2017,09,05,16,26,29.10
2017,09,05,16,27,29.10
2017,09,05,16,28,29.10
2017,09,05,16,29,29.10
2017,09,05,16,30,29.10
2017,09,05,16,31,29.10
2017,09,05,16,32,29.20
2017,09,05,16,33,29.30
2017,09,05,16,34,29.30
2017,09,05,16,35,29.30
2017,09,05,16,36,29.30
2017,09,05,16,37,29.30
2017,09,05,16,38,29.30
2017,09,05,16,39,29.30
2017,09,05,16,40,29.40
2017,09,05,16,41,29.30
2017,09,05,16,42,29.30
2017,09,05,16,43,29.30
2017,09,05,16,44,29.30
2017,09,05,16,45,29.40
2017,09,05,16,46,29.40
2017,09,05,16,47,29.50
2017,09,05,16,48,29.50
2017,09,05,16,49,29.50
2017,09,05,16,50,29.50
2017,09,05,16,51,29.50
2017,09,05,16,52,29.50
2017,09,05,16,53,29.50
2017,09,05,16,54,29.60
2017,09,05,16,55,29.60
2017,09,05,16,56,29.60
2017,09,05,16,57,29.70
2017,09,05,16,58,29.70
2017,09,05,16,59,29.70
2017,09,05,17,00,29.60
2017,09,05,17,01,29.60
2017,09,05,17,02,29.60
2017,09,05,17,03,29.60
2017,09,05,17,04,29.60
2017,09,05,17,05,29.60
2017,09,05,17,06,29.70
2017,09,05,17,07,29.70
2017,09,05,17,08,29.70
2017,09,05,17,09,29.70
2017,09,05,17,10,29.60
2017,09,05,17,11,29.60
2017,09,05,17,12,29.50
2017,09,05,17,13,29.30
2017,09,05,17,14,29.30
2017,09,05,17,15,29.20
2017,09,05,17,16,29.10
2017,09,05,17,17,29.10
2017,09,05,17,18,29.10
2017,09,05,17,19,29.10